GW1306 Weather Reports


Display with metric or nautical units.
time (UTC)temp
F
wind
direction
speed
MPH
gust
MPH
rain 1hr
in
rain 24hr
in
rain mn
in
humidity
%
barometer
mb
20260504172947 74 185 3.0 5.0 0.00 0.00 0.00 32 1015.4
20260504172443 75 206 1.0 2.0 0.00 0.00 0.00 31 1015.4
20260504171940 74 151 0.0 0.0 0.00 0.00 0.00 32 1015.3
20260504171437 73 56 0.0 1.0 0.00 0.00 0.00 33 1015.3
20260504170934 72 245 1.0 1.0 0.00 0.00 0.00 32 1015.5
20260504170430 72 83 1.0 1.0 0.00 0.00 0.00 33 1015.4
20260504160349 70 82 1.0 1.0 0.00 0.00 0.00 37 1016.2
20260504150814 67 55 1.0 1.0 0.00 0.00 0.00 36 1016.9
20260504150310 67 76 2.0 2.0 0.00 0.00 0.00 41 1016.9
20260504141241 62 62 0.0 1.0 0.00 0.00 0.00 48 1017.1
20260504140737 62 261 1.0 1.0 0.00 0.00 0.00 45 1017.0
20260504140233 62 272 1.0 2.0 0.00 0.00 0.00 47 1017.3
20260504130702 59 214 1.0 1.0 0.00 0.00 0.00 51 1017.5
20260504130157 59 210 1.0 1.0 0.00 0.00 0.00 53 1017.6
20260504120122 54 94 0.0 0.0 0.00 0.00 0.00 59 1017.7
20260504110549 51 57 1.0 1.0 0.00 0.00 0.00 66 1018.1
20260504100511 51 109 0.0 0.0 0.00 0.00 0.00 66 1017.9
20260504081904 51 97 0.0 0.0 0.00 0.00 0.00 63 1018.5
20260504081401 51 95 0.0 0.0 0.00 0.00 0.00 63 1018.4
20260504080856 51 76 0.0 0.0 0.00 0.00 0.00 63 1018.4
20260504080354 51 76 0.0 0.0 0.00 0.00 0.00 62 1018.5
20260504070321 51 85 0.0 0.0 0.00 0.00 0.00 60 1018.5
20260504060241 49 79 0.0 0.0 0.00 0.00 0.00 61 1018.6
20260504050704 48 79 0.0 0.0 0.00 0.00 0.00 61 1018.5
20260504050200 48 79 0.0 0.0 0.00 0.00 0.00 61 1018.6
20260504045657 48 79 0.0 0.0 0.00 0.00 0.00 61 1018.6
20260504045152 48 79 0.0 0.0 0.00 0.00 0.00 61 1018.5
20260504044650 48 80 0.0 0.0 0.00 0.00 0.00 61 1018.5
20260504044147 49 80 0.0 0.0 0.00 0.00 0.00 61 1018.7
20260504043644 48 79 0.0 0.0 0.00 0.00 0.00 60 1018.5
20260504043141 48 79 0.0 0.0 0.00 0.00 0.00 61 1018.6
20260504042638 48 79 0.0 0.0 0.00 0.00 0.00 61 1018.7
20260504042135 48 79 0.0 0.0 0.00 0.00 0.00 62 1018.4
20260504041630 48 81 0.0 0.0 0.00 0.00 0.00 62 1018.5
20260504041127 48 81 0.0 0.0 0.00 0.00 0.00 63 1018.4
20260504040624 48 83 0.0 0.0 0.00 0.00 0.00 63 1018.4
20260504040121 48 83 0.0 0.0 0.00 0.00 0.00 63 1018.4
20260504035618 48 166 0.0 0.0 0.00 0.00 0.00 64 1018.4
20260504035114 49 104 0.0 0.0 0.00 0.00 0.00 64 1018.3
20260504034612 49 82 0.0 0.0 0.00 0.00 0.00 64 1018.5
20260504034109 49 82 0.0 0.0 0.00 0.00 0.00 64 1018.3
20260504033607 49 82 0.0 0.0 0.00 0.00 0.00 64 1018.2
20260504033104 50 82 0.0 0.0 0.00 0.00 0.00 64 1018.3
20260504032601 50 82 0.0 0.0 0.00 0.00 0.00 63 1018.2
20260504032058 50 82 0.0 0.0 0.00 0.00 0.00 64 1018.0
20260504031554 50 83 0.0 0.0 0.00 0.00 0.00 65 1018.0
20260504031050 50 83 0.0 0.0 0.00 0.00 0.00 64 1017.9
20260504030548 50 82 0.0 0.0 0.00 0.00 0.00 64 1018.0
20260504030044 50 82 0.0 0.0 0.00 0.00 0.00 64 1018.1
20260504025541 50 82 0.0 0.0 0.00 0.00 0.00 63 1018.0
20260504025038 51 83 0.0 0.0 0.00 0.00 0.00 62 1018.0
20260504024535 51 83 0.0 0.0 0.00 0.00 0.00 62 1017.9
20260504024032 51 83 0.0 0.0 0.00 0.00 0.00 62 1018.3
20260504023529 51 83 0.0 0.0 0.00 0.00 0.00 59 1018.0
20260504023024 51 83 0.0 0.0 0.00 0.00 0.00 59 1018.0
20260504022520 51 83 0.0 0.0 0.00 0.00 0.00 57 1018.0
20260504022017 51 82 0.0 1.0 0.00 0.00 0.00 57 1018.0
20260504021515 51 89 0.0 0.0 0.00 0.00 0.00 56 1017.9
20260504021012 52 89 0.0 0.0 0.00 0.00 0.00 55 1017.7
20260504020508 52 89 0.0 0.0 0.00 0.00 0.00 54 1017.9
20260504020005 52 89 0.0 0.0 0.00 0.00 0.00 53 1017.9
20260504015501 52 89 0.0 0.0 0.00 0.00 0.00 52 1017.9
20260504014957 52 89 0.0 0.0 0.00 0.00 0.00 50 1017.9
20260504014453 53 89 0.0 0.0 0.00 0.00 0.00 49 1017.8
20260504013950 52 89 0.0 0.0 0.00 0.00 0.00 48 1017.7
20260504013449 52 89 0.0 0.0 0.00 0.00 0.00 49 1017.8
20260504012944 53 89 0.0 0.0 0.00 0.00 0.00 50 1017.5
20260504012443 53 89 0.0 0.0 0.00 0.00 0.00 49 1017.6
20260504011940 53 89 0.0 0.0 0.00 0.00 0.00 48 1017.7
20260504011436 53 89 0.0 0.0 0.00 0.00 0.00 47 1017.6
20260504010932 54 89 0.0 0.0 0.00 0.00 0.00 48 1017.5
20260504010428 54 89 0.0 0.0 0.00 0.00 0.00 46 1017.6
20260504005925 54 89 0.0 0.0 0.00 0.00 0.00 46 1017.7
20260504005422 54 89 0.0 0.0 0.00 0.00 0.00 45 1017.6
20260504004919 54 89 0.0 0.0 0.00 0.00 0.00 46 1017.4
20260504004417 54 89 0.0 0.0 0.00 0.00 0.00 47 1017.4
20260504003914 55 89 0.0 0.0 0.00 0.00 0.00 47 1017.4
20260504003410 55 92 0.0 0.0 0.00 0.00 0.00 45 1017.3
20260504002907 56 185 0.0 0.0 0.00 0.00 0.00 43 1017.3
20260504002404 56 185 0.0 0.0 0.00 0.00 0.00 42 1017.2
20260504001901 57 185 0.0 0.0 0.00 0.00 0.00 39 1017.1
20260504001359 57 185 0.0 0.0 0.00 0.00 0.00 40 1017.1
20260504000855 58 186 0.0 0.0 0.00 0.00 0.00 38 1017.0
20260504000354 58 184 0.0 0.0 0.00 0.00 0.00 38 1017.1
20260503235849 59 183 0.0 0.0 0.00 0.00 0.00 36 1017.1
20260503235347 59 183 0.0 0.0 0.00 0.00 0.00 35 1016.9
20260503234844 60 178 0.0 0.0 0.00 0.00 0.00 35 1017.0
20260503234342 60 229 1.0 1.0 0.00 0.00 0.00 33 1016.8
20260503233839 60 179 0.0 0.0 0.00 0.00 0.00 34 1016.8
20260503233335 60 188 0.0 1.0 0.00 0.00 0.00 32 1016.6
20260503232832 60 203 0.0 1.0 0.00 0.00 0.00 33 1016.6
20260503232329 61 94 0.0 0.0 0.00 0.00 0.00 32 1016.7
20260503231827 61 189 0.0 1.0 0.00 0.00 0.00 33 1016.7
20260503231324 61 114 0.0 0.0 0.00 0.00 0.00 33 1016.7
20260503230820 61 92 0.0 0.0 0.00 0.00 0.00 31 1016.5
20260503230317 61 174 0.0 0.0 0.00 0.00 0.00 33 1016.7
20260503225815 62 189 0.0 0.0 0.00 0.00 0.00 31 1016.6
20260503225310 62 239 1.0 2.0 0.00 0.00 0.00 31 1016.6
20260503224807 62 248 1.0 2.0 0.00 0.00 0.00 31 1016.5
20260503224304 62 94 0.0 0.0 0.00 0.00 0.00 32 1016.6
20260503223802 63 245 1.0 1.0 0.00 0.00 0.00 31 1016.8
20260503223259 63 175 1.0 1.0 0.00 0.00 0.00 32 1016.7
20260503222755 62 56 0.0 1.0 0.00 0.00 0.00 32 1016.6
20260503222254 62 58 1.0 1.0 0.00 0.00 0.00 31 1016.7
20260503221751 62 234 2.0 2.0 0.00 0.00 0.00 31 1016.6
20260503221249 63 210 1.0 2.0 0.00 0.00 0.00 31 1016.6
20260503220745 63 75 0.0 1.0 0.00 0.00 0.00 30 1016.8
20260503220243 63 64 0.0 0.0 0.00 0.00 0.00 30 1016.6
20260503215739 63 80 0.0 1.0 0.00 0.00 0.00 34 1016.7
20260503215236 63 72 1.0 3.0 0.00 0.00 0.00 32 1016.8
20260503214734 62 261 1.0 2.0 0.00 0.00 0.00 33 1016.8
20260503214231 62 224 1.0 1.0 0.00 0.00 0.00 31 1016.7
20260503213729 63 210 1.0 2.0 0.00 0.00 0.00 30 1016.7
20260503213226 63 229 2.0 3.0 0.00 0.00 0.00 30 1016.5
20260503212723 62 90 1.0 1.0 0.00 0.00 0.00 34 1016.5
20260503212221 62 71 1.0 1.0 0.00 0.00 0.00 30 1016.8
20260503211718 62 237 2.0 2.0 0.00 0.00 0.00 31 1016.6
20260503211214 63 188 1.0 1.0 0.00 0.00 0.00 31 1016.6
20260503210709 63 69 1.0 1.0 0.00 0.00 0.00 32 1016.8
20260503210207 63 78 0.0 0.0 0.00 0.00 0.00 34 1016.7
20260503205703 63 259 1.0 2.0 0.00 0.00 0.00 31 1016.8
20260503205159 63 223 1.0 2.0 0.00 0.00 0.00 34 1016.8
20260503204655 63 82 1.0 1.0 0.00 0.00 0.00 32 1016.6
20260503204153 63 95 1.0 1.0 0.00 0.00 0.00 31 1016.8
20260503203649 62 140 0.0 1.0 0.00 0.00 0.00 31 1017.0
20260503203148 62 237 1.0 1.0 0.00 0.00 0.00 33 1017.0
20260503202644 62 245 0.0 1.0 0.00 0.00 0.00 32 1017.0
20260503202142 62 179 1.0 2.0 0.00 0.00 0.00 33 1017.0
20260503201640 62 316 0.0 1.0 0.00 0.00 0.00 32 1017.1
20260503201137 62 283 1.0 2.0 0.00 0.00 0.00 33 1017.2
20260503200633 61 68 1.0 1.0 0.00 0.00 0.00 32 1017.1
20260503200130 62 192 1.0 2.0 0.00 0.00 0.00 35 1017.3
20260503195627 62 37 2.0 3.0 0.00 0.00 0.00 33 1017.4
20260503195124 62 237 3.0 3.0 0.00 0.00 0.00 34 1017.4
20260503194621 62 246 3.0 3.0 0.00 0.00 0.00 32 1017.5
20260503194116 61 122 0.0 1.0 0.00 0.00 0.00 37 1017.4
20260503193613 62 239 4.0 5.0 0.00 0.00 0.00 32 1017.6
20260503193108 61 84 0.0 1.0 0.00 0.00 0.00 34 1017.7
20260503192604 62 292 2.0 3.0 0.00 0.00 0.00 34 1017.7
20260503192100 61 248 0.0 1.0 0.00 0.00 0.00 37 1017.8
20260503191557 62 249 2.0 3.0 0.00 0.00 0.00 34 1017.8
20260503191054 61 45 0.0 1.0 0.00 0.00 0.00 36 1017.9
20260503190551 60 109 2.0 3.0 0.00 0.00 0.00 34 1018.0
20260503190048 60 255 1.0 2.0 0.00 0.00 0.00 34 1018.1
20260503185545 62 240 2.0 3.0 0.00 0.00 0.00 36 1018.1
20260503185044 61 47 1.0 1.0 0.00 0.00 0.00 34 1018.0
20260503184541 61 234 1.0 1.0 0.00 0.00 0.00 35 1018.3
20260503184038 60 201 0.0 1.0 0.00 0.00 0.00 36 1018.4
20260503183534 61 77 0.0 0.0 0.00 0.00 0.00 35 1018.1
20260503183031 60 91 0.0 0.0 0.00 0.00 0.00 35 1018.5
20260503182530 61 77 2.0 3.0 0.00 0.00 0.00 37 1018.4
20260503182027 60 47 1.0 1.0 0.00 0.00 0.00 36 1018.4
20260503181524 59 58 1.0 1.0 0.00 0.00 0.00 36 1018.3
20260503181020 60 220 2.0 2.0 0.00 0.00 0.00 34 1018.4
20260503180518 59 27 0.0 1.0 0.00 0.00 0.00 34 1018.5
20260503180015 59 92 3.0 5.0 0.00 0.00 0.00 37 1018.7
20260503175512 60 282 1.0 1.0 0.00 0.00 0.00 34 1018.5
20260503175009 60 251 2.0 2.0 0.00 0.00 0.00 34 1018.6
20260503174507 60 70 1.0 1.0 0.00 0.00 0.00 38 1018.4
20260503174002 59 253 3.0 3.0 0.00 0.00 0.00 43 1018.7
20260503173457 59 212 1.0 1.0 0.00 0.00 0.00 38 1018.8